COSMOS 886 DEB, 9965

Orbit data source: Space-Track

COSMOS 886 DEB, 9965 is space debris in LEO originally from a launch on Mon, 27 Dec 1976 UTC launched from the Tyuratam Missile And Space Complex (TTMTR). Debris objects in space refer to the collection of defunct objects orbiting the Earth. Examples of debris include non-operational satellites, rocket bodies, and fragments generated from explosions, collisions, or faulty payload assembly.

Loading next visibility...
Identifier
9965, 1976-126BF
Orbit
LEO
Country
Flag of CISCIS
Related business
Manufacturer
Unknown
Mission
Spacecraft
Bus & Motor
Unknown
Mass
Unknown
Launch date (UTC)
1976-12-27 (49 years ago)
Launch vehicle
Unknown
Launch site
Tyuratam Missile And Space Complex (TTMTR)
Object type
Payload
Rocket body
Debris
Shape & HBR
Unknown shape, 0.1 m
Radar Cross Section
Medium (>0.1 m² and <1 m²)

Expand to show TLE details & history
Last TLE update: 14 hours ago

TLE from 14 hours ago
0 COSMOS 886 DEB
1  9965U 76126BF  26130.00762939 -.00000453  00000-0 -12186-2 0  9993
2  9965  65.8000  47.8975 0888755 270.8367  90.9377 12.13563483163599
Epoch: 2026-05-10T00:10Z
TLE epoch observation values (Epoch: 2026-05-10T00:10:59.179Z)
Latitude
10.79715°
Longitude
-177.77273°
Altitude
1,696.127 km
Speed
6.996 km/s
True Right ascension
03h 31m 09s
True Declination
10° 44' 29"
Sunlit
Object was in daylight at epoch
Visualization orbit readout
Latitude
Unknown
Longitude
Unknown
Altitude
Unknown
Speed
Unknown
Apparent Right ascension
Unknown
Apparent Declination
Unknown
Sunlit
N/A
Visualization observer readout
Local Sidereal Time
22:46:29
Azimuth
Unknown
Elevation
Unknown
Doppler factor
Unknown
Orbital elements
Apogee altitude
2,330.102 km
Perigee altitude
908.545 km
Semi-major axis
7,997.46 km
Eccentricity
0.08888
Inclination
65.8°
RAAN
47.8975°
Arg. of periapsis
270.8367°
True anomaly
101.04951°
Mean anomaly
90.9377°
Eccentric anomaly
96.00198°
Mean motion
3.03469 °/min
Orbital period
118.63 mins
BSTAR
-0.0012186
Loading maneuver chart data...
Computing Atmospheric mass density...
Loading historical data...
Loading historical data...
Loading historical data...
Loading historical data...
Loading historical data...
Loading historical data...
Loading historical data...

Documentation

Showing up to 5 results
|